Beaumont, TX

2:47 PM CDT on May 26, 2017 (GMT -0500)
Southeast Texas Regional

Weather History for KBPT - February, 2014

Change the Weather History Date:

Thursday, February 6, 2014

  Actual Average Record
Temperature  
Mean Temperature 40 °F 54 °F  
Max Temperature 43 °F 64 °F 80 °F (1950)
Min Temperature 37 °F 45 °F 10 °F (1906)
Degree Days  
Heating Degree Days 25 11  
Month to date heating degree days 89 68  
Since 1 July heating degree days 1245 1011  
Cooling Degree Days 0 0  
Month to date cooling degree days 1 0  
Year to date cooling degree days 1 11  
Moisture  
Dew Point 27 °F    
Average Humidity 69    
Maximum Humidity 78    
Minimum Humidity 59    
Precipitation  
Precipitation T in 0.13 in 1.68 in (1967)
Month to date precipitation 0.50 0.81  
Year to date precipitation 1.77 6.07  
Snow  
Snow T in 0.00 in T in (2014)
Month to date snowfall T 0.0  
Since 1 July snowfall 0.3 T  
Snow Depth 0.00 in    
Sea Level Pressure  
Sea Level Pressure 30.36 in    
Wind  
Wind Speed 14 mph (North)    
Max Wind Speed 21 mph    
Max Gust Speed 27 mph    
Visibility 10 miles    
Events      
T = Trace of Precipitation, MM = Missing Value Source: NWS Daily Summary

Daily Weather History Graph

Daily Weather History Graph

Search for Another Location

Airport or City:

Trip Planner

Search our weather history database for the weather conditions in past years. The results will help you decide how hot, cold, wet, or windy it might be!

Date:

Astronomy

Feb. 06, 2014 Rise Set
Actual Time 7:03 AM CST 5:57 PM CST
Civil Twilight 6:38 AM CST 6:22 PM CST
Nautical Twilight 6:09 AM CST 6:50 PM CST
Astronomical Twilight 5:41 AM CST 7:19 PM CST
Moon 11:31 AM CST (2/6) 12:19 AM CST (2/6)
Length of Visible Light 11h 44m
Length of Day
10h 54m
Waxing Crescent, 49% of the Moon is Illuminated
Feb 6
Waxing Crescent
Feb 6
First Quarter
Feb 14
Full
Feb 22
Last Quarter
Mar 1
New

Hourly Weather History & Observations

Time (CST) Temp. Windchill Dew Point Humidity Pressure Visibility Wind Dir Wind Speed Gust Speed Precip Events Conditions
12:53 AM 43.0 °F 35.1 °F 28.0 °F 56% 30.35 in 10.0 mi NNE 17.3 mph - N/A   Overcast
1:53 AM 44.1 °F 36.8 °F 27.0 °F 51% 30.34 in 10.0 mi NNE 16.1 mph - N/A   Overcast
2:53 AM 42.1 °F 34.2 °F 27.0 °F 55% 30.32 in 10.0 mi North 16.1 mph - N/A   Overcast
3:53 AM 39.9 °F 30.8 °F 26.1 °F 58% 30.32 in 10.0 mi NNE 18.4 mph 26.5 mph N/A   Overcast
4:53 AM 37.9 °F 28.9 °F 26.1 °F 62% 30.35 in 10.0 mi North 16.1 mph - N/A   Overcast
5:53 AM 39.0 °F 30.6 °F 26.1 °F 60% 30.36 in 10.0 mi NNE 15.0 mph - N/A   Overcast
6:53 AM 39.0 °F 30.3 °F 26.1 °F 60% 30.37 in 10.0 mi North 16.1 mph 21.9 mph N/A   Overcast
7:53 AM 37.0 °F 27.0 °F 26.1 °F 65% 30.43 in 10.0 mi North 18.4 mph - 0.00 in   Overcast
8:53 AM 39.0 °F 30.3 °F 26.1 °F 60% 30.43 in 10.0 mi North 16.1 mph - 0.00 in   Overcast
9:53 AM 42.1 °F 33.9 °F 26.1 °F 53% 30.41 in 10.0 mi NE 17.3 mph 25.3 mph 0.00 in   Overcast
10:53 AM 43.0 °F 35.7 °F 26.1 °F 51% 30.39 in 10.0 mi NNE 15.0 mph - N/A   Mostly Cloudy
11:53 AM 44.1 °F 37.4 °F 27.0 °F 51% 30.38 in 10.0 mi North 13.8 mph - N/A   Overcast
12:53 PM 48.9 °F - 28.0 °F 44% 30.37 in 10.0 mi North 13.8 mph - N/A   Clear
1:53 PM 45.0 °F 40.1 °F 28.0 °F 52% 30.35 in 10.0 mi North 9.2 mph - N/A   Clear
2:53 PM 48.0 °F - 28.0 °F 46% 30.35 in 10.0 mi NNW 13.8 mph 19.6 mph N/A   Overcast
3:53 PM 44.1 °F 37.7 °F 28.0 °F 53% 30.35 in 10.0 mi North 12.7 mph - N/A   Overcast
4:53 PM 43.0 °F 36.8 °F 28.9 °F 58% 30.36 in 10.0 mi NNW 11.5 mph - N/A   Overcast
5:53 PM 42.1 °F 35.2 °F 28.9 °F 60% 30.35 in 10.0 mi North 12.7 mph - N/A   Mostly Cloudy
6:53 PM 41.0 °F 33.9 °F 28.0 °F 60% 30.35 in 10.0 mi NNE 12.7 mph - N/A   Partly Cloudy
7:53 PM 39.0 °F 34.0 °F 28.0 °F 65% 30.36 in 10.0 mi North 6.9 mph - N/A   Partly Cloudy
8:53 PM 39.0 °F 33.4 °F 28.0 °F 65% 30.37 in 10.0 mi North 8.1 mph - N/A   Clear
9:53 PM 37.9 °F 32.1 °F 28.0 °F 68% 30.37 in 10.0 mi NNE 8.1 mph - N/A   Clear
10:53 PM 39.9 °F 32.9 °F 28.0 °F 63% 30.37 in 10.0 mi NNE 11.5 mph - N/A   Overcast
11:53 PM 44.1 °F 37.7 °F 27.0 °F 51% 30.36 in 10.0 mi NE 12.7 mph - N/A   Overcast